Weather in Pleschenitsy

Belarus     54°25′25″N   27°49′59″E
temp.,
°C
wind,
m/s
gust,
m/s
humid.,
%
clouds,
%
prec.,
mm/h
press.,
hPa
HPBL,
m
21 june, mon
mon2100:00+19sse229098 0.0 101840
03:00+18se258981 0.0 101897
06:00+19e238861 0.0 101767
09:00+24ese476415 0.0 1017537
12:00+28ese46445 0.0 10161043
15:00+27ese564991 0.0 1016881
18:00+27e5956100 0.0 1015839
21:00+24ese513725 0.0 1014637
22 june, tue
tue2200:00+22se413848 0.0 1014549
03:00+20se41287100 0.0 1014396
06:00+20se41092100 0.3 1014303
09:00+24sse587449 0.3 1014663
12:00+27s576432 1.1 10141397
15:00+27sse4765100 1.4 1014809
18:00+29sse3758100 0.0 1014870
21:00+24sse39755 0.1 1014256
23 june, wed
wed2300:00+21se311815 0.0 1015251
03:00+19se39905 0.0 1016183
06:00+18se39901 0.0 1016212
09:00+24se47660 0.0 1016540
12:00+28sse46480 0.0 10161201
15:00+30s46500 0.0 10161524
18:00+30ssw35510 0.0 10161790
21:00+25sw11784 0.3 101611
24 june, thu
thu2400:00+22se11865 0.2 101711
03:00+20wsw1193100 1.3 101711
06:00+20ene2293100 0.4 101738
09:00+24se2482100 1.3 1017304
12:00+28sse3453100 0.0 1017988
15:00+31s344566 0.0 10161849
18:00+30ssw244945 0.0 10151727
21:00+24w117763 0.2 101512
25 june, fri
fri2500:00+21ene22917 0.3 101539
03:00+20sse1192100 1.1 101411
06:00+20s2593100 0.8 1014108
09:00+22sse3584100 1.7 1014220
12:00+28s455751 0.0 1014908
15:00+30s56505 0.0 10131826
18:00+30ssw485525 0.1 10111566
21:00+23s258597 1.3 101188